User: anonymous   Login
Location: Fort Wayne
(41.1310°N, 85.1290°W)
Time: 01:51:42
(UTC-04:00)
Language:

Oscar 19 - Orbit

View from above orbital plane
View from above orbital plane
View from above satellite
View from above satellite

Ground track
Ground track

The orbit data is extracted from the following two-line orbital elements,

1 20442U 90005G   15241.39161934  .00000051  00000-0  34618-4 0  9997
2 20442 098.5136 175.8579 0010719 295.1762 064.8311 14.32756057337420
Epoch (UTC): 29 August 2015 09:23:55
Eccentricity: 0.0010719
inclination: 98.5136°
perigee height: 775 km
apogee height: 790 km
right ascension of ascending node: 175.8579°
argument of perigee: 295.1762°
revolutions per day: 14.32756057
mean anomaly at epoch: 64.8311°
orbit number at epoch: 33742

The dashed part of the orbit path shows where the satellite is in the earth's shadow,  

DLR